Date,TemperatureHighF,TemperatureAvgF,TemperatureLowF,DewpointHighF,DewpointAvgF,DewpointLowF,HumidityHigh,HumidityAvg,HumidityLow,PressureMaxIn,PressureMinIn,WindSpeedMaxMPH,WindSpeedAvgMPH,GustSpeedMaxMPH,PrecipitationSumIn
2013-1-1,60,52,44,60,48,39,98,88,72,30.17,29.87,10,5,17,0.08
2013-1-2,45,42,38,39,32,30,84,69,57,30.27,30.17,8,4,14,0.00
2013-1-3,44,43,41,33,33,32,73,67,63,30.37,30.25,7,3,9,0.00
2013-1-4,44,41,38,40,37,33,92,85,66,30.46,30.33,8,4,12,0.03
2013-1-5,55,45,37,45,40,34,92,81,66,30.34,30.16,4,1,7,0.00
2013-1-6,61,46,32,39,34,30,96,66,34,30.33,30.21,10,3,16,0.00
2013-1-7,57,47,33,48,38,29,87,71,54,30.26,29.98,6,2,12,0.00
2013-1-8,58,52,48,57,51,47,98,97,86,29.97,29.76,8,5,17,0.50
2013-1-9,64,58,51,60,56,49,98,93,82,29.96,29.79,15,5,19,1.69
2013-1-10,67,54,44,50,46,42,97,78,48,30.00,29.91,11,4,21,0.00
2013-1-11,70,58,42,67,55,40,97,89,76,29.96,29.74,10,3,14,0.00
2013-1-12,74,70,68,69,68,66,96,93,83,29.74,29.57,11,5,13,0.00
2013-1-13,55,47,41,35,33,29,64,57,45,30.11,30.02,8,4,14,0.00
2013-1-14,53,43,36,37,30,25,70,62,53,30.18,30.03,11,8,20,0.00
2013-1-15,41,39,37,36,32,26,89,77,65,30.21,30.05,11,8,16,0.00
2013-1-16,56,42,30,28,22,19,70,49,24,30.31,30.13,12,4,19,0.00
2013-1-17,68,50,32,41,34,26,79,57,33,30.41,30.25,8,2,13,0.00
2013-1-18,65,50,35,41,36,30,87,61,35,30.45,30.25,8,2,10,0.00
2013-1-19,69,53,39,50,43,36,95,71,43,30.26,30.08,13,3,17,0.00
2013-1-20,71,54,38,57,46,36,94,77,52,30.20,30.03,7,2,12,0.00
2013-1-21,73,57,44,58,49,42,96,77,53,30.17,30.06,6,1,7,0.00
2013-1-22,74,60,48,55,49,44,87,70,50,30.24,30.11,10,3,14,0.00
2013-1-23,76,62,47,61,54,44,97,78,55,30.27,30.12,11,3,15,0.00
2013-1-24,81,67,58,66,61,56,97,82,55,30.19,30.02,11,5,15,0.00
2013-1-25,80,74,66,65,63,60,88,70,57,30.02,29.93,8,3,12,0.00
2013-1-26,73,64,56,63,59,54,95,83,66,30.08,29.94,8,4,12,0.00
2013-1-27,80,68,60,67,64,59,96,86,64,30.01,29.86,16,7,22,0.00
2013-1-28,76,71,68,69,67,66,95,87,76,29.96,29.78,14,9,19,0.00
2013-1-29,87,73,59,70,59,30,92,66,32,29.77,29.40,20,11,27,0.00
2013-1-30,61,54,39,30,23,18,55,31,20,30.18,29.74,17,7,24,0.00
2013-1-31,69,50,31,34,27,23,80,46,21,30.26,30.12,12,4,16,0.00
2013-2-1,72,58,43,48,40,34,85,55,29,30.28,30.10,15,5,20,0.00
2013-2-2,76,60,44,59,49,41,92,69,46,30.18,30.08,13,2,16,0.00
2013-2-3,72,63,55,56,46,39,85,57,40,30.25,29.94,9,5,14,0.00
2013-2-4,78,65,56,62,57,51,94,79,52,29.94,29.70,12,3,15,0.00
2013-2-5,82,65,49,57,48,42,95,60,27,29.90,29.78,7,1,9,0.00
2013-2-6,74,65,60,63,60,56,95,83,64,29.90,29.75,10,3,12,0.00
2013-2-7,79,66,59,65,59,44,96,78,48,29.98,29.78,8,3,13,0.00
2013-2-8,70,63,55,50,40,36,65,44,29,30.09,29.98,11,3,18,0.00
2013-2-9,70,60,54,68,57,41,98,90,58,30.00,29.70,13,4,18,0.00
2013-2-10,70,66,60,68,47,33,96,56,28,29.93,29.67,11,4,20,0.00
2013-2-11,61,56,52,50,46,39,94,70,44,29.97,29.86,11,7,16,0.02
2013-2-12,75,61,51,58,46,28,97,67,24,29.95,29.73,10,4,15,0.00
2013-2-13,56,50,47,39,35,34,60,56,51,30.02,29.98,11,8,16,0.00
2013-2-14,70,62,51,44,41,39,69,47,37,29.99,29.93,9,4,12,0.00
2013-2-15,70,53,40,49,40,27,92,64,36,30.31,30.00,12,4,17,0.00
2013-2-16,67,51,34,34,28,24,72,44,28,30.42,30.16,10,3,13,0.00
2013-2-17,72,56,34,54,41,29,86,60,39,30.16,29.90,16,8,24,0.00
2013-2-18,81,68,61,63,53,32,88,63,32,29.96,29.75,14,7,18,0.00
2013-2-19,65,56,47,39,36,34,63,47,33,30.17,29.97,12,5,18,0.00
2013-2-20,69,61,54,66,54,33,93,79,38,30.02,29.57,13,7,20,0.00
2013-2-21,79,70,58,68,48,27,92,54,17,29.76,29.48,15,6,19,0.00
2013-2-22,59,53,50,41,35,28,69,50,32,29.93,29.77,9,4,16,0.00
2013-2-23,73,56,43,45,38,30,64,51,35,29.99,29.78,7,3,14,0.00
2013-2-24,69,58,41,60,51,38,94,78,64,29.83,29.52,12,4,17,0.00
2013-2-25,66,58,48,61,38,22,97,52,19,29.82,29.49,21,10,31,0.00
2013-2-26,67,54,42,34,30,28,58,42,26,29.91,29.78,12,5,16,0.00
2013-2-27,58,48,41,37,33,30,78,57,39,30.05,29.80,15,3,19,0.00
2013-3-1,64,57,49,27,23,20,42,28,19,30.21,30.12,11,2,14,0.00
2013-3-2,68,54,41,34,31,26,58,43,28,30.36,30.18,10,4,18,0.00
2013-3-3,78,57,36,46,36,28,77,50,24,30.21,29.88,17,7,24,0.00
2013-3-4,88,73,52,56,49,43,77,47,25,29.87,29.63,13,5,17,0.00
2013-3-5,69,58,43,57,34,18,93,45,20,30.29,29.69,18,6,27,0.00
2013-3-6,65,51,38,29,23,17,48,34,21,30.38,30.15,10,3,12,0.00
2013-3-7,72,58,39,57,48,30,90,71,50,30.16,30.00,12,5,21,0.00
2013-3-8,70,64,61,65,61,55,94,89,81,30.05,29.90,12,5,17,0.00
2013-3-9,76,71,68,68,66,64,89,84,75,29.62,29.54,16,11,22,0.03
2013-3-10,69,63,51,64,44,34,94,53,31,30.06,29.55,13,5,20,0.12
2013-3-11,72,54,39,35,32,27,79,47,24,30.13,29.92,9,2,13,0.00
2013-3-12,80,60,38,45,35,29,77,44,21,30.12,29.99,13,4,19,0.00
2013-3-13,77,62,48,50,43,40,86,54,29,30.35,30.13,10,3,14,0.00
2013-3-14,79,69,52,55,48,40,78,51,33,30.27,30.13,12,7,17,0.00
2013-3-15,82,66,48,59,52,44,96,64,29,30.17,29.91,14,6,23,0.00
2013-3-16,85,69,54,64,58,52,95,72,35,29.93,29.65,16,8,23,0.00
2013-3-17,87,73,65,67,63,60,90,74,44,29.73,29.53,12,5,19,0.00
2013-3-18,82,71,66,65,57,44,94,68,26,29.82,29.62,9,4,15,0.00
2013-3-19,82,72,56,67,60,47,80,65,53,29.91,29.72,11,5,15,0.00
2013-3-20,73,65,58,65,51,42,86,63,38,30.13,29.84,14,6,24,0.00
2013-3-21,77,66,55,62,55,44,88,68,57,29.94,29.55,17,8,24,0.00
2013-3-22,84,70,66,69,65,59,95,85,50,29.64,29.51,9,5,16,0.00
2013-3-23,83,72,60,67,61,53,82,68,54,29.68,29.49,8,3,11,0.00
2013-3-24,68,58,48,60,33,25,84,41,24,30.09,29.61,12,4,14,0.00
2013-3-25,61,54,44,27,22,17,51,30,19,30.31,30.09,9,3,17,0.00
2013-3-26,66,53,37,33,25,22,58,35,21,30.44,30.21,7,3,11,0.00
2013-3-27,69,57,41,52,42,32,75,58,47,30.25,30.08,12,6,18,0.00
2013-3-28,70,64,59,61,57,52,85,78,69,30.12,30.04,11,6,18,0.00
2013-3-29,78,69,59,63,60,57,95,75,52,30.09,29.95,13,6,18,0.00
2013-3-30,86,73,64,68,64,62,93,75,49,30.01,29.79,13,7,18,0.00
2013-3-31,81,69,63,68,64,61,95,85,59,29.87,29.74,15,3,20,0.89
2013-4-1,86,73,63,70,65,61,96,78,50,29.96,29.77,12,2,16,0.00
2013-4-2,80,70,59,68,65,56,95,84,67,29.92,29.69,14,5,16,0.55
2013-4-3,59,55,50,58,53,46,95,91,86,30.07,29.66,14,5,21,1.05
2013-4-4,70,57,48,51,46,43,88,70,46,30.16,30.00,10,4,16,0.01
2013-4-5,72,57,40,54,47,38,94,71,48,30.22,29.99,5,2,7,0.00
2013-4-6,81,66,53,62,57,48,93,73,50,30.00,29.76,13,6,24,0.00
2013-4-7,85,77,68,67,64,63,83,67,53,29.75,29.65,13,10,19,0.00
2013-4-8,77,71,68,69,66,63,92,85,76,29.75,29.57,12,7,19,0.00
2013-4-9,89,77,71,74,69,67,89,79,56,29.62,29.44,13,7,19,0.00
2013-4-10,75,62,48,70,55,44,94,79,62,29.85,29.52,15,7,22,0.00
2013-4-11,69,57,47,48,43,36,81,60,41,29.92,29.72,7,2,13,0.01
2013-4-12,81,63,45,55,47,41,93,59,29,29.92,29.75,8,2,13,0.00
2013-4-13,79,66,52,62,54,44,95,69,46,29.88,29.67,8,3,16,0.00
2013-4-14,89,71,58,70,62,56,95,77,45,29.74,29.51,11,3,15,0.00
2013-4-15,90,78,69,72,67,64,92,73,42,29.70,29.58,10,6,17,0.00
2013-4-16,86,76,67,73,68,64,93,78,60,29.78,29.67,12,5,21,0.00
2013-4-17,80,76,73,74,72,70,96,88,79,29.77,29.54,11,6,16,0.00
2013-4-18,76,66,55,72,56,39,92,73,46,29.99,29.54,13,6,24,0.15
2013-4-19,72,59,46,38,34,28,67,42,22,30.21,29.99,13,3,23,0.00
2013-4-20,73,54,39,49,39,33,86,59,28,30.16,29.90,12,3,15,0.00
2013-4-21,80,66,52,61,54,47,88,69,46,30.05,29.89,8,2,12,0.00
2013-4-22,84,73,61,65,62,59,93,71,48,30.02,29.76,11,6,16,0.00
2013-4-23,79,70,56,70,63,46,90,79,56,29.97,29.74,12,4,17,0.00
2013-4-24,63,55,47,46,41,-100,79,60,45,30.17,29.97,12,6,23,0.00
2013-4-25,70,62,57,53,47,42,70,58,46,30.26,30.09,9,3,15,0.00
2013-4-26,80,69,60,72,65,52,97,85,70,30.11,29.92,11,4,17,0.00
2013-4-27,80,73,66,72,68,-100,95,86,71,29.99,29.82,12,2,14,1.07
2013-4-28,81,70,59,69,64,58,98,83,61,29.94,29.76,9,2,14,0.36
2013-4-29,85,73,67,70,67,64,96,83,54,29.84,29.66,15,2,20,0.09
2013-4-30,83,73,66,71,67,65,97,83,60,29.74,29.61,17,1,17,0.00
2013-5-1,86,76,69,73,69,66,94,80,61,29.81,29.68,7,2,15,0.00
2013-5-2,76,59,50,71,52,39,93,77,62,30.29,29.73,16,10,27,0.63
2013-5-3,69,57,47,41,36,32,70,48,28,30.30,30.01,13,5,22,0.00
2013-5-4,76,53,42,49,42,39,92,69,32,30.03,29.91,9,2,13,0.00
2013-5-5,63,62,61,50,50,49,65,64,64,29.99,29.98,1,0,2,0.00
2013-5-6,71,58,52,56,50,47,83,74,58,30.04,29.91,2,0,4,0.00
2013-5-7,84,70,52,62,56,50,96,65,38,30.00,29.83,8,3,17,0.00
2013-5-8,85,73,63,68,65,59,94,76,54,29.92,29.77,12,6,18,0.00
2013-5-9,82,74,65,73,69,61,93,84,74,29.87,29.71,9,4,16,0.00
2013-5-10,83,71,63,72,65,60,96,81,61,29.90,29.74,11,2,22,0.25
2013-5-11,82,72,64,66,61,54,90,69,50,30.04,29.92,9,3,16,0.00
2013-5-12,81,71,60,58,54,50,73,55,39,30.16,30.00,8,2,12,0.00
2013-5-13,83,71,54,64,56,49,90,62,40,30.18,30.05,6,2,14,0.00
2013-5-14,86,74,60,69,64,56,94,72,54,30.13,29.90,10,4,18,0.00
2013-5-15,73,72,71,68,68,68,91,88,84,29.99,29.91,6,2,12,0.00
2013-5-17,96,88,78,77,74,70,82,66,48,29.79,29.66,12,6,19,0.00
2013-5-18,95,82,73,75,71,67,94,72,47,29.81,29.70,15,6,22,0.00
2013-5-19,92,82,74,75,72,67,89,73,55,29.75,29.60,12,7,22,0.00
2013-5-20,92,81,72,75,72,70,94,76,54,29.74,29.58,11,6,20,0.00
2013-5-21,90,81,73,76,73,67,94,77,61,29.75,29.58,12,4,20,0.00
2013-5-22,89,78,65,75,67,58,88,71,60,29.83,29.68,7,2,12,0.00
2013-5-23,93,82,74,76,73,71,92,76,54,29.90,29.73,9,4,17,0.00
2013-5-24,78,73,68,74,71,66,97,93,80,30.01,29.89,5,1,10,1.04
2013-5-25,79,73,68,74,71,67,98,93,78,30.08,29.91,8,1,14,2.17
2013-5-26,85,77,71,77,72,70,97,87,71,30.00,29.86,9,2,15,0.01
2013-5-27,82,75,72,74,71,69,94,88,71,29.93,29.75,9,4,17,0.00
2013-5-28,88,80,74,76,72,71,91,80,61,29.82,29.65,13,8,22,0.00
2013-5-29,86,78,74,76,73,71,93,83,69,29.79,29.60,15,8,21,0.00
2013-5-30,89,81,75,77,74,72,90,81,66,29.73,29.65,12,5,18,0.00
2013-5-31,92,82,74,79,75,72,94,81,60,29.78,29.63,11,5,18,0.00
2013-6-1,94,84,77,79,75,73,91,77,56,29.79,29.67,11,5,20,0.00
2013-6-2,86,77,67,75,69,63,96,77,49,29.95,29.79,7,1,15,0.11
2013-6-3,90,78,65,74,68,62,97,74,51,29.89,29.73,5,1,10,0.00
2013-6-4,90,80,70,74,70,65,96,73,44,29.81,29.70,7,3,13,0.00
2013-6-5,91,80,69,76,71,67,96,75,47,29.78,29.63,8,3,13,0.00
2013-6-6,92,81,71,76,71,68,96,74,48,29.81,29.65,10,1,16,0.00
2013-6-7,78,73,67,71,67,65,93,81,69,29.91,29.78,9,2,15,0.01
2013-6-8,89,76,62,76,69,60,96,81,59,29.83,29.68,11,2,16,0.00
2013-6-9,89,80,74,79,74,70,95,83,66,29.86,29.73,10,2,13,0.00
2013-6-10,92,81,72,77,73,69,95,78,55,29.89,29.79,10,1,18,0.19
2013-6-11,91,79,74,76,74,71,95,85,59,29.94,29.85,10,1,14,0.04
2013-6-12,76,75,75,74,74,71,96,95,86,29.91,29.87,6,0,11,0.38
2013-6-13,88,77,74,80,75,71,97,92,71,29.96,29.84,12,1,18,0.34
2013-6-14,85,78,73,78,75,72,98,91,76,29.91,29.79,5,1,7,0.05
2013-6-15,91,81,75,79,76,73,97,84,61,29.90,29.77,6,1,10,0.01
2013-6-16,93,83,76,78,75,71,95,79,51,29.91,29.79,8,3,12,0.00
2013-6-17,94,84,77,78,75,72,92,75,53,29.89,29.73,9,4,15,0.00
2013-6-18,94,84,76,76,74,71,93,74,51,29.90,29.75,6,2,13,0.00
2013-6-19,95,84,76,77,74,69,93,73,45,29.88,29.77,9,4,15,0.00
2013-6-20,94,84,74,76,73,71,93,72,50,29.95,29.83,9,4,17,0.00
2013-6-21,94,84,76,76,73,66,94,71,45,29.97,29.85,8,4,16,0.00
2013-6-22,94,87,78,75,72,69,90,64,46,29.91,29.78,8,5,16,0.00
2013-6-23,80,78,76,74,74,73,93,89,78,29.87,29.84,6,4,11,0.00
2013-6-24,95,90,80,74,72,70,80,57,48,29.87,29.78,11,8,19,0.00
2013-6-25,97,86,78,75,73,70,89,69,43,29.90,29.75,12,6,19,0.00
2013-6-26,98,92,79,77,74,72,81,56,43,29.85,29.75,8,5,15,0.00
2013-6-27,101,87,75,75,71,62,90,64,31,29.92,29.79,8,2,14,0.00
2013-6-28,103,88,75,76,71,66,94,63,33,29.90,29.70,8,1,11,0.00
2013-6-29,106,91,74,76,70,63,91,54,29,29.77,29.61,6,0,8,0.00
2013-6-30,90,79,70,74,69,64,96,75,43,29.92,29.67,12,1,25,0.68
2013-7-1,91,80,72,69,62,57,88,55,38,29.90,29.78,10,2,16,0.00
2013-7-2,93,79,66,66,60,55,79,55,29,29.98,29.84,3,0,13,0.00
2013-7-3,96,83,70,66,57,50,65,43,23,29.93,29.77,6,1,10,0.00
2013-7-4,96,82,67,73,65,57,96,60,31,29.89,29.76,6,1,11,0.00
2013-7-5,81,75,73,70,68,63,89,79,56,29.86,29.84,4,0,7,0.00
2013-7-6,96,92,83,72,68,64,70,47,37,29.80,29.70,9,3,15,0.00
2013-7-7,97,82,74,78,74,72,96,79,46,29.87,29.76,8,1,14,0.48
2013-7-8,88,79,75,77,74,72,96,87,62,30.01,29.87,10,1,18,0.01
2013-7-9,96,84,74,78,75,72,97,76,45,30.05,29.88,9,2,13,0.01
2013-7-10,97,85,76,78,74,70,95,72,44,30.00,29.80,11,2,14,0.00
2013-7-11,96,85,75,77,72,66,94,68,39,29.91,29.76,9,2,16,0.00
2013-7-12,98,85,74,76,71,66,94,66,36,29.87,29.75,9,2,13,0.00
2013-7-13,100,86,72,76,69,63,94,61,33,29.88,29.72,7,1,12,0.00
2013-7-15,73,73,72,72,71,70,96,95,91,29.90,29.83,2,0,4,0.49
2013-7-16,87,78,73,77,73,72,95,85,66,30.00,29.91,11,2,15,0.09
2013-7-17,87,77,73,76,72,71,96,87,65,30.06,29.99,12,2,22,0.00
2013-7-18,90,80,73,77,73,70,96,80,55,30.05,29.89,8,2,14,0.00
2013-7-19,93,82,72,76,73,70,97,77,49,29.97,29.79,7,1,13,0.09
2013-7-20,94,85,73,77,73,69,96,70,46,29.90,29.73,10,2,16,0.01
2013-7-21,94,84,76,79,75,73,94,77,53,29.85,29.75,9,3,15,0.00
2013-7-22,98,86,78,78,76,72,93,72,46,29.89,29.76,10,5,19,0.00
2013-7-23,98,86,77,77,74,68,90,70,41,29.91,29.75,9,5,16,0.00
2013-7-24,98,86,77,78,74,69,92,70,43,29.88,29.74,8,2,15,0.00
2013-7-25,98,86,75,77,73,69,94,69,41,29.92,29.82,11,3,15,0.00
2013-7-26,98,86,76,79,75,71,94,71,43,29.93,29.76,9,2,15,0.00
2013-7-27,91,84,76,79,75,71,94,75,59,29.89,29.74,7,2,15,0.00
2013-7-28,97,85,76,78,73,70,85,69,47,29.84,29.72,8,3,14,0.00
2013-7-29,99,87,78,76,74,69,88,68,38,29.93,29.81,9,5,23,0.00
2013-7-30,101,87,78,77,73,67,88,68,35,29.98,29.84,11,4,17,0.00
2013-7-31,101,87,74,75,70,63,94,63,29,30.00,29.80,8,2,12,0.00
2013-8-1,101,88,75,76,72,68,94,63,38,29.93,29.77,9,2,11,0.00
2013-8-2,99,87,74,76,71,67,93,62,37,29.88,29.75,10,3,14,0.00
2013-8-3,99,87,76,75,73,70,92,66,40,29.91,29.79,10,4,17,0.00
2013-8-4,99,87,78,78,74,68,92,69,43,29.94,29.80,8,3,16,0.00
2013-8-5,102,88,76,77,73,67,91,65,36,29.93,29.75,10,4,16,0.00
2013-8-6,90,80,76,76,74,72,92,82,63,29.85,29.81,10,3,14,0.00
2013-8-7,93,88,84,76,74,72,69,65,58,29.78,29.69,10,7,13,0.00
2013-8-8,102,88,78,78,73,59,87,65,27,29.80,29.65,10,4,16,0.00
2013-8-9,100,87,74,76,71,63,93,64,31,29.85,29.73,7,2,13,0.00
2013-8-10,100,86,74,75,73,70,92,67,42,29.93,29.80,15,2,18,0.00
2013-8-11,98,83,77,77,74,71,93,77,42,29.97,29.83,15,1,18,0.00
2013-8-12,97,84,74,75,73,70,94,71,44,29.97,29.82,8,2,13,0.00
2013-8-13,100,87,76,77,73,67,93,65,38,29.94,29.77,9,3,14,0.00
2013-8-14,102,88,76,75,71,63,92,62,30,29.90,29.73,9,2,15,0.00
2013-8-15,101,85,77,74,71,67,88,65,35,29.89,29.77,8,1,11,0.00
2013-8-16,98,84,73,78,72,64,95,71,40,29.92,29.77,10,0,20,0.08
2013-8-17,96,84,72,76,68,59,93,61,34,29.92,29.79,7,2,15,0.00
2013-8-18,96,83,69,71,65,60,82,57,38,29.94,29.84,5,1,10,0.00
2013-8-19,95,81,69,69,65,61,88,61,36,29.95,29.80,7,1,10,0.00
2013-8-20,96,82,71,75,71,65,95,70,41,29.91,29.83,8,3,15,0.00
2013-8-21,96,82,74,77,72,69,92,75,47,29.97,29.86,11,1,16,0.00
2013-8-22,95,83,73,77,73,71,96,74,47,29.98,29.82,7,1,10,0.00
2013-8-23,98,86,74,76,72,68,94,66,40,29.92,29.77,6,1,15,0.00
2013-8-24,100,87,74,75,72,69,90,63,39,29.93,29.79,8,2,12,0.00
2013-8-25,97,85,74,75,71,69,85,66,42,29.97,29.86,8,2,16,0.00
2013-8-26,89,79,74,76,74,72,96,85,58,29.99,29.91,9,2,15,0.08
2013-8-27,92,80,73,77,73,71,96,81,53,30.00,29.91,9,2,16,0.00
2013-8-28,96,84,74,76,72,69,96,71,44,30.01,29.87,7,2,11,0.00
2013-8-29,98,85,74,77,72,68,96,67,42,29.99,29.84,6,1,9,0.00
2013-8-30,101,88,75,75,71,68,89,60,38,29.93,29.76,7,2,11,0.00
2013-8-31,100,87,74,74,71,69,90,62,40,29.84,29.70,6,2,15,0.00
2013-9-1,100,87,74,76,71,68,94,64,38,29.82,29.69,8,2,13,0.00
2013-9-2,100,87,76,76,72,67,93,65,38,29.87,29.69,11,2,14,0.00
2013-9-3,100,87,72,73,69,64,90,59,36,29.90,29.75,8,1,15,0.00
2013-9-4,100,85,78,78,73,70,83,67,40,29.94,29.82,11,1,15,0.04
2013-9-5,98,82,72,76,72,69,96,73,43,29.98,29.85,9,1,11,0.00
2013-9-6,97,84,73,76,72,69,95,71,44,29.99,29.82,9,1,20,0.00
2013-9-7,95,81,75,77,74,72,94,80,49,29.92,29.79,12,1,12,0.17
2013-9-8,91,80,73,76,73,70,97,80,55,29.88,29.78,11,2,18,0.00
2013-9-9,93,78,73,76,72,70,96,83,51,29.88,29.79,16,2,20,0.00
2013-9-10,89,78,72,78,74,70,98,87,64,29.94,29.85,11,2,14,0.01
2013-9-11,93,86,78,77,72,67,84,64,44,29.97,29.87,9,2,15,0.15
2013-9-12,94,82,72,77,71,65,97,72,39,29.95,29.79,8,1,13,0.00
2013-9-13,97,84,71,72,67,61,94,62,32,29.87,29.70,7,2,15,0.00
2013-9-14,95,82,70,73,70,66,94,67,43,29.83,29.72,8,2,12,0.00
2013-9-15,95,84,74,76,72,70,90,70,49,29.90,29.80,8,2,13,0.00
2013-9-16,88,78,74,81,74,71,96,88,70,29.94,29.84,11,1,18,0.33
2013-9-17,88,79,73,78,74,69,96,84,64,29.95,29.81,7,1,11,0.00
2013-9-18,93,80,73,77,74,72,97,84,56,29.90,29.78,11,1,14,0.42
2013-9-19,92,81,74,80,75,73,98,85,57,29.84,29.69,9,1,13,0.01
2013-9-20,81,76,71,79,74,69,97,93,88,29.76,29.65,8,2,15,0.57
2013-9-21,85,76,65,70,65,55,94,72,42,29.82,29.71,10,3,16,0.00
2013-9-22,85,71,58,60,54,49,82,59,30,29.81,29.68,6,1,14,0.00
2013-9-23,90,72,55,64,56,52,93,61,31,29.75,29.65,4,0,10,0.00
2013-9-24,95,78,62,68,62,58,89,62,34,29.83,29.71,5,0,7,0.00
2013-9-25,95,81,67,71,65,61,90,62,37,29.79,29.67,6,1,10,0.00
2013-9-26,92,81,69,75,69,61,95,70,47,29.79,29.69,8,2,14,0.00
2013-9-27,92,82,76,81,76,72,95,82,63,29.80,29.69,9,4,20,0.00
2013-9-28,92,82,76,79,76,74,96,84,58,29.86,29.75,11,4,18,0.00
2013-9-29,78,73,68,74,70,66,97,88,76,29.95,29.83,12,2,17,0.09
2013-9-30,91,76,62,69,64,61,97,70,38,29.87,29.70,4,0,11,0.00
2013-10-1,93,80,71,77,73,65,97,81,53,29.82,29.70,7,2,11,0.00
2013-10-2,92,82,76,76,74,70,94,78,55,29.85,29.74,7,3,14,0.00
2013-10-3,92,80,74,76,74,72,95,82,53,29.83,29.74,10,4,16,0.00
2013-10-4,91,85,78,74,72,71,87,68,53,29.79,29.71,8,3,14,0.00
2013-10-5,89,78,64,74,68,48,96,74,53,29.94,29.76,6,1,14,0.00
2013-10-6,80,66,54,56,50,44,95,60,29,30.06,29.92,6,1,14,0.48
2013-10-7,85,67,49,54,49,45,93,59,25,30.09,29.95,5,0,7,0.00
2013-10-8,85,68,52,57,52,49,94,61,32,30.01,29.88,4,1,10,0.00
2013-10-9,84,71,56,66,60,52,96,71,47,29.97,29.84,7,1,17,0.00
2013-10-10,87,75,64,70,66,62,93,75,51,29.93,29.77,9,2,16,0.00
2013-10-11,91,80,73,76,73,68,93,81,59,29.83,29.71,11,3,19,0.00
2013-10-12,93,83,76,77,75,72,94,78,55,29.90,29.78,9,3,14,0.00
2013-10-13,79,73,68,76,72,65,98,94,86,30.06,29.89,11,2,14,0.53
2013-10-14,86,77,72,76,73,71,99,89,67,29.98,29.80,10,3,17,0.01
2013-10-15,86,77,67,74,71,61,95,82,62,29.89,29.76,9,2,15,0.00
2013-10-16,66,59,56,61,57,55,97,93,83,30.00,29.82,5,1,13,0.44
2013-10-17,73,63,53,59,54,50,93,76,51,30.06,29.90,4,1,8,0.00
2013-10-18,74,66,58,68,62,54,96,87,80,29.92,29.78,3,1,10,0.00
2013-10-19,69,60,49,65,49,43,96,70,39,30.11,29.89,5,1,13,0.00
2013-10-20,76,59,44,56,49,42,95,71,42,30.04,29.84,6,1,10,0.00
2013-10-21,79,69,60,70,63,56,96,84,71,29.95,29.80,7,1,14,0.00
2013-10-22,77,65,52,58,50,43,84,61,31,30.08,29.96,6,2,15,0.00
2013-10-23,82,63,45,52,47,42,93,62,29,30.11,30.01,6,1,10,0.00
2013-10-24,81,66,47,58,53,45,94,66,37,30.15,30.04,6,1,10,0.00
2013-10-25,81,68,54,65,60,52,96,77,53,30.22,30.08,8,2,13,0.00
2013-10-26,83,72,64,68,65,62,96,80,57,30.13,29.97,8,2,14,0.00
2013-10-27,84,73,67,71,68,64,96,83,59,30.01,29.89,5,1,11,0.00
2013-10-28,85,75,67,72,68,64,96,80,59,29.99,29.86,9,4,14,0.00
2013-10-29,85,77,72,74,70,68,93,81,61,29.98,29.84,10,5,18,0.00
2013-10-30,85,78,74,77,74,70,95,88,73,29.92,29.70,10,5,18,0.00
2013-10-31,85,74,57,74,63,46,97,73,26,29.80,29.69,11,3,21,0.17
2013-11-1,86,62,50,65,53,48,96,77,43,29.86,29.76,8,1,15,0.00
2013-11-2,76,67,52,44,42,39,68,41,28,30.21,30.08,7,2,15,0.00
2013-11-3,72,51,47,42,42,40,81,70,32,30.14,29.97,2,0,2,0.00
2013-11-4,71,67,60,64,62,57,93,83,72,29.98,29.86,4,0,11,0.00
2013-11-5,81,72,65,71,68,63,97,85,66,29.92,29.79,6,2,14,0.00
2013-11-6,83,67,56,73,60,43,95,79,62,30.24,29.86,8,2,13,0.00
2013-11-7,64,56,48,44,39,33,71,56,36,30.39,30.24,7,1,11,0.00
2013-11-8,65,58,52,50,44,40,74,60,42,30.31,30.10,4,1,13,0.00
2013-11-9,72,62,55,61,55,49,93,79,66,30.12,30.02,5,0,10,0.00
2013-11-10,68,64,60,61,59,56,91,84,73,30.21,30.07,4,0,6,0.00
2013-11-11,77,66,59,59,56,54,91,72,50,30.19,30.05,2,0,4,0.00
2013-11-12,67,58,46,57,50,30,85,74,53,30.56,30.14,11,4,20,0.00
2013-11-13,58,45,36,32,28,26,76,53,34,30.55,30.35,3,0,6,0.00
2013-11-14,63,49,31,48,36,27,92,65,37,30.35,29.99,4,0,7,0.00
2013-11-15,79,64,49,61,55,46,94,73,51,29.98,29.78,9,2,15,0.00
2013-11-16,83,73,63,72,68,60,96,85,66,29.83,29.66,16,5,24,0.00
2013-11-17,88,77,69,72,70,66,94,80,55,29.84,29.68,8,2,14,0.00
2013-11-18,81,70,62,70,65,60,96,85,66,30.00,29.83,7,2,15,0.00
2013-11-19,70,64,58,65,53,46,92,67,51,30.05,29.91,7,3,14,0.00
2013-11-20,74,67,59,68,62,55,94,84,73,29.93,29.79,4,1,9,0.00
2013-11-21,82,75,70,74,71,68,95,89,72,29.94,29.83,8,3,13,0.00
2013-11-22,74,48,37,72,46,34,95,91,83,30.33,29.93,11,5,19,0.16
2013-11-23,43,40,37,41,37,34,100,91,85,30.40,30.31,7,3,15,0.08
2013-11-24,41,39,35,40,36,33,96,90,79,30.42,30.28,8,1,15,0.42
2013-11-25,42,38,35,40,37,34,97,94,87,30.29,30.02,7,2,14,0.39
2013-11-26,51,43,38,39,35,31,87,76,57,30.33,30.08,12,4,21,0.00
2013-11-27,54,41,32,31,28,24,88,61,32,30.44,30.29,6,1,15,0.00
2013-11-28,56,42,32,32,30,27,87,65,35,30.41,30.28,1,0,3,0.00
2013-11-29,64,50,35,52,44,30,95,80,65,30.44,30.27,5,1,11,0.00
2013-11-30,70,59,48,60,53,45,93,80,67,30.31,30.10,7,1,12,0.00
2013-12-1,74,62,54,63,58,52,96,85,66,30.11,29.90,9,1,12,0.00
2013-12-2,81,66,56,63,57,52,96,76,47,29.89,29.61,9,2,14,0.00
2013-12-3,87,66,50,61,52,46,96,67,27,29.65,29.52,7,1,12,0.00
2013-12-4,77,64,52,67,60,50,98,87,71,29.71,29.59,8,1,11,0.00
2013-12-5,68,50,35,67,45,30,97,83,69,30.01,29.69,12,5,18,0.00
2013-12-6,44,35,31,35,30,25,94,82,68,30.37,29.99,10,4,15,0.01
2013-12-7,35,31,28,26,24,21,85,75,68,30.41,30.24,8,3,13,0.00
2013-12-8,50,39,30,41,34,26,89,83,70,30.24,29.97,0,0,2,0.00
2013-12-9,45,40,36,42,39,33,96,94,86,30.31,30.00,8,4,17,0.01
2013-12-10,50,39,29,32,27,25,91,66,37,30.46,30.28,9,1,14,0.00
2013-12-11,60,44,30,35,30,24,88,62,34,30.46,30.27,1,0,4,0.00
2013-12-12,52,45,37,36,34,30,77,66,54,30.54,30.26,5,1,8,0.00
2013-12-13,50,48,46,49,42,36,96,81,67,30.25,29.84,4,1,9,0.00
2013-12-14,60,51,43,48,41,32,97,71,49,30.26,29.85,12,3,19,0.00
2013-12-15,63,47,30,34,31,25,86,57,33,30.36,30.20,3,0,10,0.00
2013-12-16,62,47,34,35,32,29,82,60,35,30.26,30.14,0,0,0,0.00
2013-12-17,72,52,34,46,38,32,93,63,35,30.27,30.15,5,0,13,0.00
2013-12-18,72,57,39,53,47,36,87,72,50,30.22,29.98,8,2,12,0.00
2013-12-19,77,66,58,64,60,53,93,82,60,29.97,29.70,15,4,20,0.00
2013-12-20,75,69,64,68,65,62,95,88,74,29.75,29.52,11,4,18,0.00
2013-12-21,74,65,48,68,55,40,96,74,31,29.77,29.44,12,2,20,0.41
2013-12-22,64,51,41,46,40,31,90,67,48,30.29,29.77,12,3,17,0.00
2013-12-23,59,44,32,32,28,25,83,57,31,30.44,30.29,3,0,9,0.00
2013-12-24,60,46,29,40,30,26,91,59,29,30.48,30.21,7,1,11,0.00
2013-12-25,58,50,39,49,44,37,95,83,71,30.30,30.17,6,2,7,0.00
2013-12-26,52,48,45,45,41,37,91,78,69,30.36,30.26,6,2,13,0.00
2013-12-27,54,49,45,49,46,43,95,88,77,30.37,30.26,5,1,9,0.20
2013-12-28,57,50,44,48,45,41,94,82,64,30.26,29.97,5,1,9,0.00
2013-12-29,64,50,38,53,44,33,96,82,65,30.19,29.92,12,2,20,0.00
2013-12-30,43,39,36,33,30,27,83,69,57,30.35,30.16,11,2,15,0.00
2013-12-31,51,43,36,33,31,28,81,64,43,30.41,30.20,0,0,1,0.00
2014-1-1,59,50,39,50,42,31,82,74,63,30.19,29.96,4,1,5,0.00
2014-1-2,55,46,33,48,32,25,91,60,40,30.41,30.01,13,5,22,0.00